| time (UTC) | temp C | wind direction | speed KPH | gust KPH | rain 1hr cm | rain 24hr cm | rain mn cm | humidity % | barometer mb |
| 20260503202710 | 6 | 269 | 11.3 | 12.9 | 0.00 | 0.00 | 0.00 | 100 | 1007.8 |
| 20260503200710 | 7 | 264 | 9.7 | 11.3 | 0.00 | 0.00 | 0.00 | 100 | 1007.7 |
| 20260503194709 | 7 | 283 | 11.3 | 12.9 | 0.00 | 0.00 | 0.00 | 100 | 1007.8 |
| 20260503192709 | 7 | 276 | 9.7 | 9.7 | 0.00 | 0.00 | 0.00 | 100 | 1007.8 |
| 20260503190709 | 8 | 273 | 11.3 | 14.5 | 0.00 | 0.00 | 0.00 | 100 | 1007.8 |
| 20260503184710 | 8 | 268 | 12.9 | 14.5 | 0.00 | 0.00 | 0.00 | 100 | 1007.8 |
| 20260503182709 | 8 | 284 | 9.7 | 12.9 | 0.00 | 0.00 | 0.00 | 100 | 1007.7 |
| 20260503180709 | 7 | 279 | 12.9 | 14.5 | 0.00 | 0.00 | 0.00 | 100 | 1007.7 |
| 20260503174710 | 7 | 261 | 16.1 | 17.7 | 0.00 | 0.00 | 0.00 | 100 | 1007.7 |
| 20260503172716 | 7 | 256 | 17.7 | 19.3 | 0.00 | 0.00 | 0.00 | 100 | 1007.7 |
| 20260503170709 | 7 | 253 | 14.5 | 16.1 | 0.00 | 0.00 | 0.00 | 100 | 1007.6 |
| 20260503150709 | 8 | 252 | 22.5 | 30.6 | 0.00 | 0.00 | 0.00 | 100 | 1008.1 |
| 20260503130708 | 9 | 254 | 22.5 | 30.6 | 0.00 | 0.00 | 0.00 | 97 | 1008.3 |
| 20260503110708 | 10 | 246 | 25.7 | 30.6 | 0.00 | 0.00 | 0.00 | 84 | 1008.3 |
| 20260503080708 | 8 | 250 | 11.3 | 12.9 | 0.00 | 0.00 | 0.00 | 100 | 1008.2 |
| 20260503072707 | 9 | 295 | 6.4 | 9.7 | 0.00 | 0.00 | 0.00 | 94 | 1007.7 |
| 20260503070707 | 8 | 335 | 6.4 | 12.9 | 0.00 | 0.00 | 0.00 | 100 | 1007.4 |
| 20260503054707 | 7 | 265 | 9.7 | 14.5 | 0.00 | 0.00 | 0.00 | 100 | 1006.6 |
| 20260503052707 | 7 | 296 | 6.4 | 14.5 | 0.00 | 0.00 | 0.00 | 100 | 1006.6 |
| 20260503050707 | 7 | 304 | 9.7 | 14.5 | 0.00 | 0.00 | 0.00 | 100 | 1006.3 |
| 20260503044707 | 6 | 317 | 11.3 | 16.1 | 0.00 | 0.00 | 0.00 | 100 | 1006.2 |
| 20260503042707 | 6 | 268 | 11.3 | 14.5 | 0.00 | 0.00 | 0.00 | 100 | 1005.9 |
| 20260503040706 | 6 | 267 | 17.7 | 20.9 | 0.00 | 0.00 | 0.00 | 100 | 1006.0 |
| 20260503034707 | 5 | 265 | 19.3 | 24.1 | 0.00 | 0.00 | 0.00 | 100 | 1005.9 |
| 20260503032707 | 5 | 257 | 22.5 | 27.4 | 0.00 | 0.00 | 0.00 | 100 | 1005.6 |
| 20260503030707 | 5 | 255 | 19.3 | 25.7 | 0.00 | 0.00 | 0.00 | 100 | 1005.7 |
| 20260503024707 | 5 | 259 | 20.9 | 25.7 | 0.00 | 0.00 | 0.00 | 100 | 1005.7 |
| 20260503022706 | 5 | 263 | 22.5 | 27.4 | 0.00 | 0.00 | 0.00 | 100 | 1005.8 |
| 20260503020706 | 5 | 256 | 29.0 | 35.4 | 0.00 | 0.00 | 0.00 | 100 | 1005.8 |
| 20260503014706 | 5 | 249 | 29.0 | 33.8 | 0.00 | 0.00 | 0.00 | 100 | 1005.4 |
| 20260503012706 | 5 | 249 | 27.4 | 32.2 | 0.00 | 0.00 | 0.00 | 100 | 1005.5 |
| 20260503010706 | 5 | 249 | 29.0 | 33.8 | 0.00 | 0.00 | 0.00 | 100 | 1005.7 |
| 20260503004706 | 5 | 248 | 27.4 | 30.6 | 0.00 | 0.00 | 0.00 | 100 | 1005.9 |
| 20260503002706 | 5 | 249 | 27.4 | 32.2 | 0.00 | 0.00 | 0.00 | 100 | 1006.1 |
| 20260503000706 | 5 | 252 | 27.4 | 32.2 | 0.00 | 0.00 | 0.00 | 100 | 1006.3 |
| 20260502234706 | 5 | 250 | 27.4 | 30.6 | 0.00 | 0.00 | 0.00 | 100 | 1006.6 |
| 20260502232706 | 5 | 248 | 30.6 | 37.0 | 0.00 | 0.00 | 0.00 | 100 | 1006.7 |
| 20260502230706 | 6 | 248 | 29.0 | 33.8 | 0.00 | 0.00 | 0.00 | 100 | 1006.8 |
| 20260502224706 | 6 | 250 | 30.6 | 35.4 | 0.00 | 0.00 | 0.00 | 100 | 1007.1 |
| 20260502222707 | 6 | 249 | 27.4 | 33.8 | 0.00 | 0.00 | 0.00 | 100 | 1007.2 |
| 20260502220706 | 6 | 247 | 27.4 | 32.2 | 0.00 | 0.00 | 0.00 | 100 | 1007.3 |
| 20260502214706 | 6 | 248 | 27.4 | 33.8 | 0.00 | 0.00 | 0.00 | 100 | 1007.6 |
| 20260502212705 | 6 | 245 | 27.4 | 33.8 | 0.00 | 0.00 | 0.00 | 100 | 1007.8 |
| 20260502210705 | 6 | 245 | 27.4 | 33.8 | 0.00 | 0.00 | 0.00 | 100 | 1007.9 |
| 20260502204706 | 6 | 242 | 24.1 | 30.6 | 0.00 | 0.00 | 0.00 | 100 | 1008.3 |